Location: Builderbug Observatory
(40.4552°N, 111.7868°W)
Time: 10:40:37

Humanity Star - Visible Passes

Search period start: 19 March 2018 00:00
Search period end: 29 March 2018 00:00
Orbit: 243 x 294 km, 82.9° (Epoch: 19 March)

Date Brightness Start Highest point End Pass type
(mag) Time Alt. Az. Time Alt. Az. Time Alt. Az.
19 Mar 4.3 06:46:55 10° NNW 06:49:16 55° W 06:51:39 10° S visible
20 Mar 4.4 06:43:00 10° NNW 06:45:11 42° W 06:47:23 10° SSW visible
21 Mar 3.9 06:31:21 10° NNW 06:33:18 47° W 06:35:17 10° S visible
